Flag for U.S.A. Weather past 2 weeks in Wilmington, North Carolina, U.S.A.

Now
33 °F

Sunny.


Feels Like: 29 °F
Forecast: 27 / 52 °F
Wind: 5 mph from Northeast

Location: New Hanover International Airport

Current Time: Jan 29, 2015 at 9:55:43 AM

Latest Report: Jan 29, 2015 at 8:53 AM


Visibility: 10 mi

Pressure: 30.38 "Hg

Humidity: 61%

Dew point: 21 °F

Location of WilmingtonLocation

Historic Weather in Wilmington — Graph

°F

Wilmington temperature yesterday

Maximum temperature yesterday: 47 °F (at 2:53 PM)
Minimum temperature yesterday: 26 °F (at 11:53 PM)
Average temperature yesterday: 35 °F

Past Weeks' High & Low Weather Summary

 TemperatureHumidityPressure
High67 °F (Jan 24, 1:53 AM)100% (Jan 25, 7:53 AM)30.38 "Hg (Jan 25, 7:53 AM)
Low22 °F (Jan 29, 4:53 AM)25% (Jan 19, 1:53 PM)29.48 "Hg (Jan 24, 7:01 AM)
Average46 °F75%30.02 "Hg
* Reported Jan 14 8:53 AM — Jan 29 8:53 AM, Wilmington, Weather by CustomWeather, © 2014

Note: Actual official high and low records may vary slightly from our data, if they occured in-between our weather recording intervals... More about our weather records

Advertising

Wilmington weather history for previous 24 hours

 ConditionsComfort  
Time TempWeatherWind HumidityBarometerVisibility
8:53 AM
Jan 29
33 °FSunny.5 mph61%30.38 "Hg10 mi
7:53 AM28 °FSunny.No wind72%30.37 "Hg10 mi
6:53 AM26 °FClear.No wind81%30.35 "Hg10 mi
5:53 AM26 °FClear.No wind77%30.34 "Hg10 mi
4:53 AM22 °FClear.5 mph92%30.33 "Hg10 mi
3:53 AM25 °FClear.No wind85%30.32 "Hg10 mi
2:53 AM25 °FClear.No wind85%30.33 "Hg10 mi
1:53 AM25 °FClear.No wind85%30.34 "Hg10 mi
12:53 AM25 °FClear.No wind88%30.34 "Hg10 mi
11:53 PM
Jan 28
26 °FClear.3 mph88%30.33 "Hg10 mi
10:53 PM28 °FClear.No wind81%30.34 "Hg10 mi
9:53 PM30 °FClear.No wind72%30.32 "Hg10 mi
8:53 PM33 °FClear.No wind63%30.32 "Hg10 mi
7:53 PM34 °FClear.5 mph54%30.31 "Hg10 mi
6:53 PM35 °FClear.6 mph54%30.29 "Hg10 mi
5:53 PM40 °FClear.6 mph36%30.26 "Hg10 mi
4:53 PM44 °FSunny.15 mph29%30.24 "Hg10 mi
3:53 PM46 °FSunny.12 mph27%30.22 "Hg10 mi
2:53 PM47 °FSunny.14 mph32%30.19 "Hg10 mi
1:53 PM45 °FSunny.12 mph34%30.19 "Hg10 mi
12:53 PM44 °FSunny.13 mph40%30.20 "Hg10 mi
11:53 AM40 °FSunny.14 mph45%30.22 "Hg10 mi
10:53 AM38 °FSunny.14 mph45%30.22 "Hg10 mi
9:53 AM36 °FSunny.17 mph46%30.21 "Hg10 mi
Weather by CustomWeather, © 2014

See weather overviewHow to use our weather pages